[[{"header":{"parameterUnit":"m.s-1","parameterCategory":1,"la1":30.2991,"la2":30.254,"lo1":-89.0895,"lo2":-89.0444,"dy":0.0017,"dx":0.0017,"nx":28,"ny":28,"refTime":"2025-11-22T09:00:00:Z","depth":0,"parameterNumber":2,"parameterNumberName":"U-component_of_WINDS"},"data":[0,0,0,0,0,0,0,0,0,0,0,0,0,0,0,0,0,0,0,0,0,0,0,0,0,0,0,0,0,0,0,0,0,0,0,0,0,0,0,0,0,0,0,0,0,0,0,0,0,0,0,0,0,0,0,0,0,0,-0.0347,-0.0346,0,-0.0284,-0.0283,-0.0282,-0.0245,-0.0245,-0.0245,-0.0245,-0.0178,-0.0176,-0.0175,0,0,0,0,0,0,0,0,0,0,0,0,0,-0.0433,-0.0432,-0.0347,-0.0346,-0.0345,-0.0284,-0.0283,-0.0282,-0.0245,-0.0245,-0.0245,-0.0245,-0.0178,-0.0177,-0.0175,0,0,0,0,0,0,0,0,0,0,0,0,0,-0.0385,-0.0431,-0.0347,-0.032,-0.0317,-0.0284,-0.0283,-0.0282,-0.0245,-0.0245,-0.0245,-0.0245,-0.0179,-0.0177,-0.0174,-0.0163,0,0,-0.0167,-0.0166,0,0,0,0,0,0,0,0,-0.0388,-0.0382,-0.0325,-0.0322,-0.0318,-0.0272,-0.0289,-0.0242,-0.0245,-0.0272,-0.0245,-0.0245,-0.0209,-0.0204,-0.0193,-0.016,-0.0157,-0.0167,-0.0165,-0.0164,-0.0163,0,0,0,0,0,0,0,-0.0391,-0.0385,-0.0322,-0.0324,-0.032,-0.0309,-0.0302,-0.028,-0.0243,-0.027,-0.0267,-0.026,-0.0207,-0.0195,-0.0191,-0.0156,-0.0167,-0.0164,-0.0163,-0.0162,-0.011,-0.011,0,0,0,0,0,0,-0.0399,-0.0388,-0.0324,-0.032,-0.0353,-0.0308,-0.03,-0.0287,-0.0243,-0.0236,-0.026,-0.0259,-0.02,-0.0194,-0.0189,-0.0172,-0.0164,-0.0162,-0.016,-0.011,-0.011,-0.011,0,0,0,0,0,0,-0.0401,-0.0394,-0.0326,-0.0353,-0.0344,-0.0307,-0.0292,-0.0286,-0.0274,-0.0236,-0.0229,-0.0255,-0.0199,-0.0192,-0.017,-0.0169,-0.0161,-0.0158,-0.011,-0.011,-0.011,-0.014,0,0,0,0,0,0,-0.0404,-0.0395,-0.0391,-0.0353,-0.0342,-0.031,-0.0292,-0.0285,-0.027,-0.0267,-0.0229,-0.0222,-0.0199,-0.0174,-0.0167,-0.0166,-0.0156,-0.0109,-0.011,-0.011,-0.0138,-0.0141,-0.0143,0,0,0,0,0,-0.0407,-0.0402,-0.0391,-0.0384,-0.0337,-0.031,-0.0303,-0.0277,-0.027,-0.0265,-0.0241,-0.0224,-0.017,-0.0172,-0.0164,-0.0162,-0.0109,-0.011,-0.011,-0.0138,-0.014,-0.0143,0,0,0,0,0,0,-0.0441,-0.0397,-0.0384,-0.0367,-0.0343,-0.0304,-0.0297,-0.0281,-0.0257,-0.0256,-0.0223,-0.0214,-0.0195,-0.0176,-0.0178,-0.0148,-0.0138,-0.0137,-0.0161,-0.0164,-0.0166,-0.0171,-0.0154,0,0,0,0,0,-0.0446,-0.0429,-0.0391,-0.0379,-0.0367,-0.0335,-0.0322,-0.0303,-0.0276,-0.0265,-0.0239,-0.0213,-0.019,-0.0176,-0.0153,-0.0135,-0.0126,-0.013,-0.0132,-0.0134,-0.0133,-0.0121,-0.0122,-0.0111,-0.0111,-0.0111,0,0,-0.0457,-0.0431,-0.0422,-0.0385,-0.0364,-0.0345,-0.0326,-0.0307,-0.0293,-0.0262,-0.024,-0.0219,-0.0188,-0.0168,-0.0157,-0.0151,-0.0134,-0.0134,-0.0136,-0.0134,-0.0122,-0.0123,-0.0124,-0.0111,-0.0111,-0.0111,0,0,-0.0468,-0.0447,-0.0434,-0.0413,-0.0382,-0.0359,-0.0356,-0.032,-0.0305,-0.0282,-0.0258,-0.024,-0.0201,-0.018,-0.0163,-0.0164,-0.0147,-0.0157,-0.0168,-0.0157,-0.0158,-0.0159,-0.0158,-0.0158,-0.0157,-0.0157,-0.0157,0,-0.0486,-0.0458,-0.043,-0.0412,-0.0396,-0.0368,-0.0354,-0.0335,-0.0297,-0.0286,-0.0279,-0.023,-0.0206,-0.018,-0.018,-0.0168,-0.0163,-0.0162,-0.016,-0.0161,-0.0161,-0.016,-0.016,-0.0158,-0.0158,-0.0158,-0.0158,0,-0.0481,-0.0461,-0.0455,-0.0419,-0.0402,-0.0387,-0.0355,-0.0341,-0.0324,-0.0302,-0.0278,-0.0248,-0.0218,-0.0211,-0.0193,-0.0181,-0.0179,-0.0167,-0.0156,-0.0164,-0.0162,-0.0162,-0.016,-0.016,-0.0159,-0.0159,0,0,-0.0512,-0.046,-0.0458,-0.0441,-0.0403,-0.0387,-0.037,-0.0341,-0.0329,-0.0303,-0.0287,-0.0254,-0.0243,-0.0224,-0.0204,-0.0194,-0.0195,-0.0183,-0.0182,-0.0186,-0.0179,-0.0189,-0.0189,-0.0184,-0.0183,-0.0183,-0.0182,0,-0.0517,-0.0485,-0.0459,-0.0436,-0.0417,-0.0389,-0.0373,-0.0348,-0.0326,-0.0306,-0.0282,-0.0259,-0.0246,-0.0235,-0.0224,-0.0198,-0.0194,-0.0197,-0.0167,-0.0167,-0.0176,-0.0188,-0.0198,-0.0198,-0.0181,-0.0181,-0.0181,0,-0.0519,-0.0495,-0.0471,-0.0433,-0.0424,-0.0411,-0.0382,-0.0363,-0.0333,-0.0318,-0.0297,-0.0275,-0.0254,-0.0245,-0.0214,-0.0217,-0.0203,-0.0188,-0.0188,-0.0184,-0.0175,-0.0184,-0.0198,-0.0198,-0.018,-0.018,-0.018,0,-0.0544,-0.0505,-0.0485,-0.0471,-0.0428,-0.0419,-0.04,-0.0369,-0.0353,-0.0327,-0.0316,-0.0287,-0.0272,-0.0249,-0.022,-0.0216,-0.0192,-0.0181,-0.0179,-0.0179,-0.0175,-0.0176,-0.0186,-0.0166,-0.0166,-0.0166,-0.0166,0,-0.0552,-0.0538,-0.0495,-0.0483,-0.0466,-0.0435,-0.0419,-0.0397,-0.037,-0.0352,-0.0325,-0.0309,-0.0272,-0.025,-0.0227,-0.0205,-0.0198,-0.0185,-0.0179,-0.0187,-0.0189,-0.0178,-0.0177,-0.0166,-0.0166,-0.0166,-0.0166,0,-0.0577,-0.0548,-0.0525,-0.0485,-0.0474,-0.0464,-0.0429,-0.0415,-0.0392,-0.037,-0.0362,-0.0326,-0.0299,-0.0268,-0.0231,-0.0215,-0.0194,-0.0186,-0.0205,-0.0202,-0.0201,-0.0201,-0.0204,-0.0202,-0.0184,-0.0185,-0.0185,0,-0.0585,-0.0574,-0.0532,-0.0519,-0.0501,-0.0479,-0.0463,-0.0431,-0.0414,-0.0378,-0.0368,-0.0339,-0.0315,-0.0273,-0.0243,-0.0214,-0.0204,-0.0207,-0.02,-0.0208,-0.0204,-0.0205,-0.0203,-0.0209,-0.021,-0.021,-0.021,0,-0.0601,-0.0587,-0.0564,-0.0536,-0.0517,-0.0493,-0.0468,-0.0458,-0.042,-0.0403,-0.0376,-0.0357,-0.0318,-0.029,-0.0257,-0.0236,-0.0217,-0.0213,-0.021,-0.0219,-0.023,-0.0224,-0.021,-0.0213,-0.0213,-0.0212,-0.0212,-0.0212,-0.0617,-0.0605,-0.0574,-0.0549,-0.0527,-0.0504,-0.0489,-0.0464,-0.044,-0.0407,-0.0389,-0.0362,-0.033,-0.0284,-0.0264,-0.0241,-0.0234,-0.0231,-0.0231,-0.023,-0.0232,-0.0234,-0.0235,-0.0235,-0.0235,-0.0235,-0.0234,0,-0.0631,-0.061,-0.0587,-0.0553,-0.0533,-0.0517,-0.0487,-0.0472,-0.0448,-0.042,-0.0397,-0.0364,-0.0336,-0.0303,-0.0272,-0.026,-0.025,-0.0253,-0.0254,-0.0249,-0.0241,-0.0245,-0.0262,-0.0262,-0.0262,-0.0262,-0.0262,-0.0262,-0.0637,-0.0616,-0.0597,-0.0564,-0.0542,-0.0516,-0.0501,-0.0478,-0.0456,-0.0421,-0.0398,-0.0376,-0.0346,-0.0312,-0.0285,-0.0276,-0.0266,-0.0271,-0.0259,-0.0252,-0.025,-0.0248,-0.0252,-0.0269,-0.0269,-0.027,-0.027,-0.027]},{"header":{"parameterUnit":"m.s-1","parameterCategory":1,"la1":30.2991,"la2":30.254,"lo1":-89.0895,"lo2":-89.0444,"dy":0.0017,"dx":0.0017,"nx":28,"ny":28,"refTime":"2025-11-22T09:00:00:Z","depth":0,"parameterNumber":3,"parameterNumberName":"V-component_of_WINDS"},"data":[0,0,0,0,0,0,0,0,0,0,0,0,0,0,0,0,0,0,0,0,0,0,0,0,0,0,0,0,0,0,0,0,0,0,0,0,0,0,0,0,0,0,0,0,0,0,0,0,0,0,0,0,0,0,0,0,0,0,-2.2071,-2.2071,0,-2.2075,-2.2075,-2.2075,-2.2095,-2.2096,-2.2096,-2.2097,-2.2096,-2.2095,-2.2095,0,0,0,0,0,0,0,0,0,0,0,0,0,-2.2077,-2.2077,-2.2071,-2.2071,-2.2071,-2.2075,-2.2075,-2.2075,-2.2095,-2.2096,-2.2096,-2.2097,-2.2096,-2.2095,-2.2095,0,0,0,0,0,0,0,0,0,0,0,0,0,-2.2077,-2.2077,-2.2071,-2.2082,-2.2083,-2.2075,-2.2075,-2.2075,-2.2095,-2.2096,-2.2096,-2.2097,-2.2096,-2.2095,-2.2094,-2.2075,0,0,-2.2092,-2.2092,0,0,0,0,0,0,0,0,-2.2077,-2.2077,-2.208,-2.2081,-2.2082,-2.2085,-2.2077,-2.2075,-2.2095,-2.209,-2.2097,-2.2097,-2.2091,-2.2091,-2.209,-2.2075,-2.2075,-2.2092,-2.2092,-2.2091,-2.2091,0,0,0,0,0,0,0,-2.2077,-2.2077,-2.2072,-2.208,-2.2081,-2.2085,-2.2086,-2.2077,-2.2086,-2.2091,-2.2092,-2.2093,-2.2092,-2.2091,-2.209,-2.2075,-2.2092,-2.2092,-2.2091,-2.2091,-2.2046,-2.2046,0,0,0,0,0,0,-2.2076,-2.2077,-2.2072,-2.2073,-2.2082,-2.2084,-2.2085,-2.2083,-2.2087,-2.2088,-2.2092,-2.2093,-2.2091,-2.2091,-2.209,-2.2069,-2.2091,-2.2091,-2.209,-2.2047,-2.2046,-2.2045,0,0,0,0,0,0,-2.2076,-2.2076,-2.2072,-2.2075,-2.2075,-2.2084,-2.2081,-2.2083,-2.2082,-2.2088,-2.2089,-2.2089,-2.2092,-2.2091,-2.208,-2.207,-2.209,-2.209,-2.2048,-2.2047,-2.2046,-2.2027,0,0,0,0,0,0,-2.2076,-2.2076,-2.2069,-2.2075,-2.2075,-2.2063,-2.2081,-2.2083,-2.2081,-2.2083,-2.2085,-2.2086,-2.2092,-2.2081,-2.2079,-2.2069,-2.2089,-2.2049,-2.2048,-2.2046,-2.2028,-2.2025,-2.2022,0,0,0,0,0,-2.2076,-2.2062,-2.2069,-2.2068,-2.2067,-2.2062,-2.2062,-2.2071,-2.208,-2.2074,-2.2077,-2.2086,-2.2071,-2.2079,-2.2077,-2.2067,-2.205,-2.2048,-2.2046,-2.203,-2.2026,-2.2022,0,0,0,0,0,0,-2.2053,-2.2063,-2.207,-2.2058,-2.2059,-2.2066,-2.2057,-2.2066,-2.2063,-2.2065,-2.2075,-2.2075,-2.2062,-2.2063,-2.2073,-2.2049,-2.2062,-2.206,-2.205,-2.2046,-2.2043,-2.2044,-2.2089,0,0,0,0,0,-2.2046,-2.2043,-2.2051,-2.2039,-2.204,-2.2048,-2.2046,-2.2053,-2.2055,-2.2055,-2.2058,-2.2057,-2.2053,-2.2049,-2.2045,-2.2028,-2.2029,-2.202,-2.2017,-2.2015,-2.2013,-2.2006,-2.2003,-2.204,-2.204,-2.204,0,0,-2.2032,-2.2037,-2.2034,-2.2034,-2.2036,-2.2032,-2.2049,-2.2042,-2.2039,-2.2053,-2.2044,-2.2046,-2.2046,-2.2032,-2.2026,-2.2033,-2.2003,-2.2013,-2.2011,-2.201,-2.2004,-2.2,-2.1997,-2.2039,-2.2039,-2.2039,0,0,-2.2005,-2.2008,-2.2,-2.2002,-2.2006,-2.2012,-2.201,-2.2015,-2.2018,-2.2008,-2.202,-2.2015,-2.2006,-2.2006,-2.2005,-2.198,-2.1988,-2.1978,-2.1963,-2.1956,-2.1953,-2.195,-2.1942,-2.1939,-2.1976,-2.1976,-2.1976,0,-2.1987,-2.1982,-2.1993,-2.1988,-2.1988,-2.2002,-2.1994,-2.1994,-2.1996,-2.1995,-2.2002,-2.1993,-2.1994,-2.1982,-2.1976,-2.1974,-2.1972,-2.1978,-2.1952,-2.195,-2.1948,-2.1941,-2.1937,-2.1975,-2.1975,-2.1975,-2.1975,0,-2.196,-2.1957,-2.1949,-2.1953,-2.1951,-2.1944,-2.1953,-2.195,-2.1958,-2.1963,-2.1954,-2.1956,-2.1953,-2.195,-2.1956,-2.1939,-2.1943,-2.1951,-2.1964,-2.1943,-2.1936,-2.1934,-2.1973,-2.1974,-2.1974,-2.1974,0,0,-2.1918,-2.193,-2.1927,-2.1929,-2.1935,-2.1932,-2.1925,-2.1924,-2.1922,-2.1922,-2.1917,-2.191,-2.1918,-2.1917,-2.1923,-2.1917,-2.1899,-2.1926,-2.1926,-2.1922,-2.1881,-2.1876,-2.1873,-2.1904,-2.1903,-2.1903,-2.1882,0,-2.1894,-2.1885,-2.1895,-2.1883,-2.1881,-2.1895,-2.1889,-2.1891,-2.1896,-2.1893,-2.1897,-2.1893,-2.1904,-2.1904,-2.1898,-2.1902,-2.1891,-2.1903,-2.1899,-2.1899,-2.19,-2.1869,-2.1863,-2.1843,-2.1879,-2.1879,-2.1878,0,-2.1864,-2.1866,-2.1854,-2.1863,-2.1862,-2.1856,-2.1857,-2.1855,-2.1858,-2.1861,-2.1861,-2.1869,-2.1862,-2.1875,-2.1865,-2.1874,-2.1872,-2.1874,-2.1874,-2.1874,-2.1888,-2.187,-2.1837,-2.1834,-2.1874,-2.1874,-2.1875,0,-2.1836,-2.1835,-2.1829,-2.183,-2.1839,-2.1836,-2.1839,-2.1843,-2.1842,-2.1842,-2.1842,-2.1841,-2.184,-2.1838,-2.1846,-2.1854,-2.1836,-2.1848,-2.1839,-2.1839,-2.1836,-2.1836,-2.1803,-2.1832,-2.1833,-2.1833,-2.1833,0,-2.1809,-2.1801,-2.1817,-2.1813,-2.1806,-2.1817,-2.1809,-2.1813,-2.1817,-2.1814,-2.1825,-2.1821,-2.1831,-2.1828,-2.1834,-2.1826,-2.1825,-2.1828,-2.183,-2.1828,-2.1828,-2.1828,-2.183,-2.1832,-2.1832,-2.1832,-2.1832,0,-2.1777,-2.1787,-2.1782,-2.1791,-2.1793,-2.1787,-2.1795,-2.1792,-2.1797,-2.1793,-2.1793,-2.1801,-2.1799,-2.1806,-2.1804,-2.1808,-2.1797,-2.18,-2.1797,-2.1799,-2.179,-2.1791,-2.1756,-2.1753,-2.1784,-2.1783,-2.1783,0,-2.1759,-2.1755,-2.1764,-2.1764,-2.1768,-2.1766,-2.1767,-2.1778,-2.1777,-2.1781,-2.1777,-2.1776,-2.1776,-2.1771,-2.1776,-2.1775,-2.1779,-2.1767,-2.1779,-2.1778,-2.1781,-2.1781,-2.1781,-2.1765,-2.1764,-2.1764,-2.1764,0,-2.1727,-2.1733,-2.1734,-2.1737,-2.1738,-2.174,-2.1743,-2.1741,-2.1754,-2.1752,-2.1751,-2.1751,-2.175,-2.1749,-2.1749,-2.1751,-2.176,-2.176,-2.1758,-2.1757,-2.1756,-2.1758,-2.1792,-2.1761,-2.1761,-2.1762,-2.1762,-2.1762,-2.1703,-2.1701,-2.1708,-2.1709,-2.1712,-2.1715,-2.1713,-2.172,-2.1719,-2.1721,-2.1727,-2.1725,-2.1729,-2.173,-2.1732,-2.173,-2.1735,-2.1732,-2.1731,-2.173,-2.173,-2.1755,-2.1729,-2.1729,-2.1729,-2.1729,-2.173,0,-2.1673,-2.1679,-2.168,-2.1685,-2.1686,-2.1695,-2.1699,-2.1699,-2.1697,-2.1701,-2.1701,-2.17,-2.17,-2.1705,-2.1705,-2.1703,-2.1707,-2.1702,-2.1703,-2.1704,-2.1724,-2.1727,-2.1699,-2.1699,-2.1699,-2.1699,-2.1699,-2.1699,-2.1658,-2.1654,-2.1661,-2.1659,-2.1665,-2.1664,-2.1666,-2.1669,-2.1672,-2.1671,-2.1671,-2.1676,-2.168,-2.1681,-2.1681,-2.1682,-2.1682,-2.1677,-2.168,-2.1699,-2.1702,-2.1705,-2.1707,-2.1677,-2.1677,-2.166,-2.166,-2.166]}]]